AKDT,Max TemperatureF,Mean TemperatureF,Min TemperatureF,Max Dew PointF,MeanDew PointF,Min DewpointF,Max Humidity, Mean Humidity, Min Humidity, Max Sea Level PressureIn, Mean Sea Level PressureIn, Min Sea Level PressureIn, Max VisibilityMiles, Mean VisibilityMiles, Min VisibilityMiles, Max Wind SpeedMPH, Mean Wind SpeedMPH, Max Gust SpeedMPH,PrecipitationIn, CloudCover, Events, WindDirDegrees
2011-10-1,48,44,39,39,35,30,86,71,60,29.63,29.60,29.53,10,10,10,14,8,21,0.11,6,Rain,107
2011-10-2,52,45,39,39,37,35,96,78,54,29.60,29.53,29.46,10,9,6,29,13,46,0.36,7,Rain,130
2011-10-3,51,44,37,36,35,33,89,72,54,29.54,29.47,29.44,10,10,10,13,8,20,0.00,4,,72
2011-10-4,45,39,33,36,34,31,92,83,68,29.58,29.53,29.49,10,10,10,9,4,,0.00,6,,356
2011-10-5,52,42,32,34,31,29,92,70,48,29.58,29.49,29.37,10,10,10,17,9,24,0.00,2,,47
2011-10-6,48,41,34,36,34,28,89,70,58,29.52,29.40,29.35,10,10,10,18,8,24,0.00,5,Rain,95
2011-10-7,48,42,35,38,34,31,93,81,65,29.77,29.68,29.55,10,10,10,8,5,,0.00,7,Rain,351
2011-10-8,50,42,33,37,34,30,89,76,56,29.78,29.72,29.59,10,10,10,7,5,,0.00,6,,355
2011-10-9,46,36,26,32,28,23,89,75,51,29.60,29.56,29.54,10,10,10,8,3,,0.00,2,,30
2011-10-10,45,36,27,29,25,21,81,68,47,29.61,29.55,29.49,10,10,10,9,4,,0.00,0,,341
2011-10-11,42,30,19,27,22,17,89,74,53,29.67,29.56,29.49,10,10,10,6,1,,0.00,0,,121
2011-10-12,39,29,19,24,20,17,96,74,49,30.01,29.87,29.69,10,10,10,8,2,,0.00,0,,91
2011-10-13,46,34,28,24,20,18,75,55,43,30.03,29.98,29.84,10,10,10,9,6,,0.00,7,,350
2011-10-14,48,45,42,34,28,21,73,50,42,29.83,29.55,29.39,10,9,5,28,16,40,0.00,5,,116
2011-10-15,46,42,39,37,36,35,93,75,66,29.60,29.50,29.40,10,10,10,23,9,34,0.00,7,Rain,89
2011-10-16,39,36,33,39,36,32,100,95,93,29.82,29.69,29.62,10,8,2,6,2,,0.55,8,Rain-Snow,346
2011-10-17,41,36,30,35,32,30,100,92,77,29.89,29.84,29.75,10,8,0,6,1,,0.00,6,Fog-Rain,333
2011-10-18,37,32,28,32,29,25,100,89,67,29.75,29.68,29.64,10,8,2,8,2,,0.00,7,,306
2011-10-19,35,32,28,29,26,23,89,79,70,29.75,29.73,29.70,10,10,10,6,2,,0.00,8,,3
2011-10-20,43,33,24,24,19,16,88,56,39,29.74,29.65,29.54,10,10,10,13,7,,0.00,2,,7
2011-10-21,46,39,32,28,23,18,85,55,40,29.52,29.40,29.32,10,10,10,15,7,,0.00,3,,12
2011-10-22,41,34,27,29,25,21,89,69,51,29.58,29.46,29.38,10,10,10,12,5,,0.00,5,,351
2011-10-23,39,32,28,28,25,22,82,71,62,29.71,29.67,29.59,10,10,10,10,4,18,0.00,8,,360
2011-10-24,48,41,34,34,29,23,79,61,48,29.65,29.57,29.44,10,10,10,28,10,41,0.00,7,Rain,69
2011-10-25,45,42,39,37,35,32,89,78,63,29.44,29.08,28.85,10,10,8,24,17,38,0.14,7,Rain,107
2011-10-26,43,36,30,37,32,26,100,84,58,29.57,29.31,29.02,10,10,5,7,2,,0.17,7,Rain,345
2011-10-27,41,34,28,25,20,18,85,60,40,29.60,29.55,29.44,10,10,10,13,9,,0.00,0,,5
2011-10-28,36,29,23,23,20,16,85,68,58,29.43,29.29,29.19,10,10,10,13,4,,0.00,1,,2
2011-10-29,30,28,26,23,19,15,81,67,56,29.21,29.12,29.05,10,10,10,16,9,,0.00,4,,9
2011-10-30,30,24,15,28,22,10,93,79,47,29.71,29.45,29.24,10,5,1,9,2,,0.08,7,Snow,130
2011-10-31,25,18,12,20,16,8,93,85,68,29.74,29.67,29.59,10,7,0,10,4,,0.02,6,Fog-Snow,347